Tracking 19832 objects as of 25-Aug-2019
HD Live streaming from Space Station
objects crossing your sky now

CZ-2D DEB

Track CZ-2D DEB now!
10-day predictions


NORAD ID: 43504
Int'l Code: 2017-084E
Perigee: 498.0 km
Apogee: 523.4 km
Inclination: 97.5 °
Period: 94.7 minutes
Semi major axis: 6881 km
RCS: Unknown
Launch date: December 23, 2017
Source: People's Republic of China (PRC)
Launch site: Jiuquan Satellite Launch Center, China (JSC)

Note: This is SATELLITE DEBRIS
aabbcc
Your satellite tracking list
Your tracking list is empty




NASA's NSSDC Master Catalog

Two Line Element Set (TLE):
1 43504U 17084E   19236.76546017  .00000906  00000-0  44254-4 0  9991
2 43504  97.5433 321.1210 0018395 163.7674 196.4155 15.20753222 92055
Source of the keplerian elements: AFSPC